This is the latest recevied weather packets stored in our database for station/object WC4PEM-1. If no packets are shown the sender has not sent any weather packets the latest 10 day(s).
| Time | Temp. | Humidity | Pressure | Rain* | Wind** | Luminosity | Snow |
|---|---|---|---|---|---|---|---|
| 1777570117 | 31.67° C | 47% | 1010.9 hPa | 0 mm | - | 1053 W/m² | - |
| 1777569817 | 31.11° C | 50% | 1010.8 hPa | 0 mm | - | 1020 W/m² | - |
| 1777569517 | 30.56° C | 49% | 1010.8 hPa | 0 mm | - | 223 W/m² | - |
| 1777569217 | 30.56° C | 51% | 1010.9 hPa | 0 mm | - | 1027 W/m² | - |
| 1777569106 | 30° C | 51% | 1010.8 hPa | 0 mm | - | 998 W/m² | - |
| 1777568917 | 30° C | 51% | 1010.8 hPa | 0 mm | - | 998 W/m² | - |
| 1777568663 | 30.56° C | 52% | 1010.9 hPa | 0 mm | - | 1071 W/m² | - |
| 1777568617 | 30° C | 52% | 1010.8 hPa | 0 mm | - | 1025 W/m² | - |
| 1777568317 | 30.56° C | 52% | 1010.9 hPa | 0 mm | - | 1071 W/m² | - |
| 1777568017 | 30° C | 53% | 1011 hPa | 0 mm | - | 954 W/m² | - |
| 1777567858 | 30° C | 53% | 1010.9 hPa | 0 mm | - | 1002 W/m² | - |
| 1777567717 | 30° C | 53% | 1010.9 hPa | 0 mm | - | 1002 W/m² | - |
| 1777567417 | 29.44° C | 55% | 1010.9 hPa | 0 mm | - | 529 W/m² | - |
| 1777567117 | 28.89° C | 55% | 1011.2 hPa | 0 mm | - | 439 W/m² | - |
| 1777566984 | 28.89° C | 56% | 1011.2 hPa | 0 mm | - | 482 W/m² | - |
| 1777566817 | 28.89° C | 56% | 1011.2 hPa | 0 mm | - | 482 W/m² | - |
| 1777566517 | 28.89° C | 57% | 1011.2 hPa | 0 mm | - | 487 W/m² | - |
| 1777566217 | 28.33° C | 58% | 1011.3 hPa | 0 mm | - | 464 W/m² | - |
| 1777565917 | 28.33° C | 59% | 1011.5 hPa | 0 mm | - | 580 W/m² | - |
| 1777565663 | 27.78° C | 61% | 1011.6 hPa | 0 mm | - | 582 W/m² | - |
| 1777565617 | 28.89° C | 59% | 1011.6 hPa | 0 mm | - | 461 W/m² | - |
| 1777565317 | 28.33° C | 60% | 1011.7 hPa | 0 mm | - | 489 W/m² | - |
| 1777565017 | 28.33° C | 61% | 1011.7 hPa | 0 mm | - | 923 W/m² | - |
| 1777564717 | 27.78° C | 61% | 1011.6 hPa | 0 mm | - | 582 W/m² | - |
| 1777564417 | 27.78° C | 61% | 1011.7 hPa | 0 mm | - | 603 W/m² | - |
* Rain latest hour (hover to see other rain measurements)
** Current wind speed in m/s (hover to see current wind gust speed)